| time (UTC) | temp F | wind direction | speed MPH | gust MPH | rain 1hr in | rain 24hr in | rain mn in | humidity % | barometer mb |
| 20260509200527 | 59 | 330 | 2.0 | 3.0 | 0.00 | 0.19 | 0.19 | 91 | 1013.2 |
| 20260509195612 | 59 | 317 | 3.0 | 5.0 | 0.00 | 0.19 | 0.19 | 91 | 1013.3 |
| 20260509194519 | 60 | 312 | 4.0 | 6.0 | 0.00 | 0.19 | 0.19 | 88 | 1013.0 |
| 20260509193603 | 60 | 289 | 2.0 | 4.0 | 0.00 | 0.19 | 0.19 | 87 | 1012.6 |
| 20260509192528 | 60 | 11 | 2.0 | 3.0 | 0.00 | 0.19 | 0.19 | 86 | 1012.6 |
| 20260509191527 | 60 | 327 | 2.0 | 3.0 | 0.00 | 0.19 | 0.19 | 89 | 1012.8 |
| 20260509190519 | 60 | 176 | 1.0 | 2.0 | 0.00 | 0.19 | 0.19 | 84 | 1013.0 |
| 20260509185525 | 61 | 229 | 3.0 | 4.0 | 0.00 | 0.19 | 0.19 | 84 | 1013.2 |
| 20260509184544 | 60 | 189 | 1.0 | 2.0 | 0.00 | 0.19 | 0.19 | 88 | 1013.5 |
| 20260509183516 | 60 | 303 | 2.0 | 5.0 | 0.00 | 0.19 | 0.19 | 89 | 1013.7 |
| 20260509182541 | 59 | 250 | 3.0 | 6.0 | 0.00 | 0.19 | 0.19 | 88 | 1013.9 |
| 20260509181519 | 58 | 303 | 3.0 | 5.0 | 0.00 | 0.19 | 0.19 | 91 | 1013.8 |
| 20260509180518 | 58 | 258 | 4.0 | 6.0 | 0.00 | 0.19 | 0.19 | 89 | 1013.7 |
| 20260509175516 | 58 | 256 | 4.0 | 7.0 | 0.00 | 0.19 | 0.19 | 89 | 1013.7 |
| 20260509174535 | 58 | 232 | 2.0 | 4.0 | 0.00 | 0.19 | 0.19 | 90 | 1013.5 |
| 20260509173526 | 58 | 184 | 2.0 | 4.0 | 0.00 | 0.19 | 0.19 | 92 | 1014.0 |
| 20260509172532 | 57 | 222 | 2.0 | 4.0 | 0.00 | 0.19 | 0.19 | 94 | 1014.2 |
| 20260509171517 | 56 | 208 | 2.0 | 4.0 | 0.00 | 0.19 | 0.19 | 98 | 1014.4 |
| 20260509170523 | 56 | 205 | 2.0 | 4.0 | 0.00 | 0.19 | 0.19 | 98 | 1014.5 |
| 20260509165547 | 56 | 188 | 1.0 | 3.0 | 0.01 | 0.19 | 0.19 | 99 | 1014.4 |
| 20260509164532 | 55 | 201 | 1.0 | 3.0 | 0.01 | 0.19 | 0.19 | 98 | 1014.6 |
| 20260509163519 | 55 | 160 | 3.0 | 4.0 | 0.03 | 0.19 | 0.19 | 98 | 1014.2 |
| 20260509162543 | 55 | 166 | 3.0 | 4.0 | 0.03 | 0.19 | 0.19 | 99 | 1014.2 |
| 20260509161528 | 55 | 222 | 2.0 | 3.0 | 0.05 | 0.19 | 0.19 | 99 | 1014.2 |
| 20260509160535 | 54 | 169 | 2.0 | 3.0 | 0.07 | 0.19 | 0.19 | 99 | 1014.1 |
| 20260509155520 | 54 | 0.0 | 0.0 | 0.08 | 0.18 | 0.18 | 99 | 1014.0 | |
| 20260509154524 | 54 | 128 | 1.0 | 2.0 | 0.08 | 0.18 | 0.18 | 99 | 1014.0 |
| 20260509153530 | 54 | 0.0 | 0.0 | 0.08 | 0.16 | 0.16 | 99 | 1014.5 | |
| 20260509152537 | 54 | 180 | 1.0 | 2.0 | 0.10 | 0.16 | 0.16 | 99 | 1014.5 |
| 20260509151521 | 53 | 126 | 1.0 | 3.0 | 0.10 | 0.14 | 0.14 | 99 | 1014.6 |
| 20260509150526 | 53 | 173 | 3.0 | 5.0 | 0.09 | 0.12 | 0.12 | 99 | 1014.9 |
| 20260509145551 | 53 | 170 | 2.0 | 4.0 | 0.08 | 0.10 | 0.10 | 99 | 1015.2 |
| 20260509144017 | 54 | 208 | 2.0 | 4.0 | 0.08 | 0.09 | 0.09 | 99 | 1014.9 |
| 20260509143016 | 55 | 194 | 1.0 | 3.0 | 0.06 | 0.07 | 0.07 | 97 | 1014.7 |
| 20260509142016 | 55 | 215 | 1.0 | 2.0 | 0.03 | 0.04 | 0.04 | 96 | 1014.7 |
| 20260509141032 | 56 | 208 | 2.0 | 3.0 | 0.03 | 0.04 | 0.04 | 93 | 1014.5 |
| 20260509140040 | 56 | 252 | 1.0 | 2.0 | 0.01 | 0.02 | 0.02 | 92 | 1014.5 |
| 20260509135024 | 57 | 201 | 2.0 | 3.0 | 0.01 | 0.02 | 0.02 | 90 | 1014.5 |
| 20260509134028 | 57 | 213 | 1.0 | 3.0 | 0.00 | 0.01 | 0.01 | 89 | 1014.5 |
| 20260509133016 | 57 | 196 | 2.0 | 4.0 | 0.00 | 0.01 | 0.01 | 88 | 1014.5 |
| 20260509132020 | 57 | 182 | 3.0 | 4.0 | 0.01 | 0.01 | 0.01 | 86 | 1014.2 |
| 20260509131025 | 57 | 267 | 2.0 | 3.0 | 0.01 | 0.01 | 0.01 | 86 | 1014.5 |
| 20260509130030 | 56 | 242 | 2.0 | 3.0 | 0.01 | 0.01 | 0.01 | 91 | 1014.5 |
| 20260509125017 | 55 | 218 | 2.0 | 3.0 | 0.01 | 0.01 | 0.01 | 93 | 1014.5 |
| 20260509124021 | 54 | 216 | 2.0 | 3.0 | 0.01 | 0.01 | 0.01 | 95 | 1014.5 |
| 20260509123025 | 54 | 230 | 3.0 | 4.0 | 0.01 | 0.01 | 0.01 | 98 | 1014.5 |
| 20260509122031 | 53 | 277 | 2.0 | 3.0 | 0.00 | 0.00 | 0.00 | 99 | 1014.6 |
| 20260509121038 | 52 | 223 | 1.0 | 2.0 | 0.00 | 0.00 | 0.00 | 99 | 1014.6 |
| 20260509120022 | 51 | 315 | 1.0 | 2.0 | 0.00 | 0.00 | 0.00 | 99 | 1014.5 |
| 20260509115027 | 51 | 126 | 1.0 | 2.0 | 0.00 | 0.00 | 0.00 | 99 | 1014.6 |
| 20260509114032 | 50 | 248 | 0.0 | 2.0 | 0.00 | 0.00 | 0.00 | 99 | 1014.7 |
| 20260509113100 | 50 | 0.0 | 0.0 | 0.00 | 0.00 | 0.00 | 99 | 1014.6 | |
| 20260509112043 | 50 | 170 | 1.0 | 2.0 | 0.00 | 0.00 | 0.00 | 99 | 1014.5 |
| 20260509111028 | 49 | 0.0 | 0.0 | 0.00 | 0.00 | 0.00 | 99 | 1014.4 | |
| 20260509110032 | 49 | 45 | 0.0 | 1.0 | 0.00 | 0.00 | 0.00 | 99 | 1014.2 |
| 20260509105019 | 49 | 45 | 0.0 | 1.0 | 0.00 | 0.00 | 0.00 | 99 | 1014.2 |
| 20260509104025 | 49 | 176 | 1.0 | 2.0 | 0.00 | 0.00 | 0.00 | 98 | 1014.1 |
| 20260509103029 | 49 | 165 | 1.0 | 2.0 | 0.00 | 0.00 | 0.00 | 97 | 1013.7 |
| 20260509102015 | 49 | 0.0 | 0.0 | 0.00 | 0.00 | 0.00 | 96 | 1013.7 | |
| 20260509101040 | 49 | 0.0 | 2.0 | 0.00 | 0.00 | 0.00 | 97 | 1013.5 | |
| 20260509100026 | 49 | 48 | 1.0 | 3.0 | 0.00 | 0.00 | 0.00 | 97 | 1013.2 |
| 20260509095030 | 49 | 203 | 1.0 | 2.0 | 0.00 | 0.00 | 0.00 | 95 | 1013.4 |
| 20260509094016 | 49 | 173 | 2.0 | 2.0 | 0.00 | 0.00 | 0.00 | 95 | 1013.6 |
| 20260509093021 | 49 | 0.0 | 0.0 | 0.00 | 0.00 | 0.00 | 94 | 1013.7 | |
| 20260509092026 | 49 | 0.0 | 0.0 | 0.00 | 0.00 | 0.00 | 95 | 1013.7 | |
| 20260509091032 | 49 | 0.0 | 0.0 | 0.00 | 0.00 | 0.00 | 94 | 1013.5 | |
| 20260509090019 | 49 | 0.0 | 0.0 | 0.00 | 0.00 | 0.00 | 94 | 1013.7 | |
| 20260509085022 | 49 | 0.0 | 0.0 | 0.00 | 0.00 | 0.00 | 92 | 1013.7 | |
| 20260509084027 | 49 | 0.0 | 0.0 | 0.00 | 0.00 | 0.00 | 92 | 1013.7 | |
| 20260509083032 | 49 | 300 | 0.0 | 1.0 | 0.00 | 0.00 | 0.00 | 93 | 1013.7 |
| 20260509082018 | 49 | 152 | 1.0 | 2.0 | 0.00 | 0.00 | 0.00 | 92 | 1013.7 |
| 20260509081023 | 49 | 158 | 0.0 | 2.0 | 0.00 | 0.00 | 0.00 | 91 | 1013.7 |
| 20260509080028 | 49 | 0.0 | 0.0 | 0.00 | 0.00 | 0.00 | 92 | 1013.7 | |
| 20260509075027 | 49 | 165 | 1.0 | 2.0 | 0.00 | 0.00 | 0.00 | 93 | 1013.8 |
| 20260509074021 | 49 | 0.0 | 0.0 | 0.00 | 0.00 | 0.00 | 93 | 1013.9 | |
| 20260509073024 | 49 | 0.0 | 0.0 | 0.00 | 0.00 | 0.00 | 92 | 1013.9 | |
| 20260509072024 | 49 | 177 | 1.0 | 2.0 | 0.00 | 0.00 | 0.00 | 91 | 1014.0 |
| 20260509071016 | 48 | 210 | 1.0 | 2.0 | 0.00 | 0.00 | 0.00 | 93 | 1014.2 |
| 20260509070022 | 47 | 0.0 | 0.0 | 0.00 | 0.00 | 0.00 | 95 | 1014.2 | |
| 20260509065039 | 48 | 158 | 0.0 | 2.0 | 0.00 | 0.00 | 0.00 | 95 | 1014.2 |
| 20260509064018 | 48 | 248 | 0.0 | 1.0 | 0.00 | 0.00 | 0.00 | 94 | 1014.3 |
| 20260509063016 | 49 | 180 | 0.0 | 2.0 | 0.00 | 0.00 | 0.00 | 94 | 1014.4 |
| 20260509062017 | 49 | 0.0 | 0.0 | 0.00 | 0.00 | 0.00 | 92 | 1014.5 | |
| 20260509061026 | 50 | 293 | 0.0 | 2.0 | 0.00 | 0.00 | 0.00 | 93 | 1014.7 |
| 20260509060031 | 50 | 0.0 | 0.0 | 0.00 | 0.00 | 0.00 | 92 | 1014.4 | |
| 20260509055018 | 50 | 0.0 | 0.0 | 0.00 | 0.00 | 0.00 | 92 | 1014.4 | |
| 20260509054022 | 50 | 180 | 1.0 | 2.0 | 0.00 | 0.00 | 0.00 | 92 | 1014.4 |
| 20260509053028 | 51 | 270 | 0.0 | 1.0 | 0.00 | 0.00 | 0.00 | 91 | 1014.4 |
| 20260509052032 | 51 | 0.0 | 0.0 | 0.00 | 0.00 | 0.00 | 90 | 1014.4 | |
| 20260509051039 | 51 | 173 | 0.0 | 1.0 | 0.00 | 0.00 | 0.00 | 92 | 1014.6 |
| 20260509050025 | 51 | 0.0 | 0.0 | 0.00 | 0.00 | 0.00 | 90 | 1014.7 | |
| 20260509045048 | 51 | 0.0 | 0.0 | 0.00 | 0.00 | 0.00 | 90 | 1014.7 | |
| 20260509044033 | 51 | 0.0 | 0.0 | 0.00 | 0.00 | 0.00 | 91 | 1014.8 | |
| 20260509043020 | 51 | 0.0 | 0.0 | 0.00 | 0.00 | 0.00 | 91 | 1014.9 | |
| 20260509042025 | 51 | 0.0 | 0.0 | 0.00 | 0.00 | 0.00 | 90 | 1014.9 | |
| 20260509041030 | 51 | 0.0 | 0.0 | 0.00 | 0.00 | 0.00 | 89 | 1014.9 | |
| 20260509040015 | 51 | 113 | 0.0 | 2.0 | 0.00 | 0.00 | 0.00 | 89 | 1014.9 |
| 20260509035101 | 51 | 0.0 | 0.0 | 0.00 | 0.00 | 0.00 | 88 | 1014.9 | |
| 20260509034024 | 52 | 0.0 | 2.0 | 0.00 | 0.00 | 0.00 | 87 | 1014.9 | |
| 20260509033030 | 52 | 315 | 0.0 | 2.0 | 0.00 | 0.00 | 0.00 | 85 | 1014.9 |
| 20260509032016 | 52 | 0.0 | 0.0 | 0.00 | 0.00 | 0.00 | 84 | 1015.3 | |
| 20260509031021 | 53 | 158 | 1.0 | 3.0 | 0.00 | 0.00 | 0.00 | 83 | 1015.3 |
| 20260509030025 | 53 | 0.0 | 0.0 | 0.00 | 0.00 | 0.00 | 83 | 1015.4 | |
| 20260509025030 | 53 | 0.0 | 0.0 | 0.00 | 0.00 | 0.00 | 83 | 1015.3 | |
| 20260509024038 | 53 | 0.0 | 0.0 | 0.00 | 0.00 | 0.00 | 82 | 1015.2 | |
| 20260509023021 | 53 | 343 | 1.0 | 1.0 | 0.00 | 0.00 | 0.00 | 82 | 1015.3 |
| 20260509022046 | 53 | 0.0 | 0.0 | 0.00 | 0.00 | 0.00 | 80 | 1015.4 | |
| 20260509021031 | 53 | 158 | 0.0 | 2.0 | 0.00 | 0.00 | 0.00 | 79 | 1015.2 |
| 20260509020017 | 54 | 189 | 1.0 | 2.0 | 0.00 | 0.00 | 0.00 | 81 | 1014.9 |
| 20260509015044 | 53 | 179 | 2.0 | 3.0 | 0.00 | 0.00 | 0.00 | 82 | 1014.8 |
| 20260509014027 | 54 | 34 | 1.0 | 2.0 | 0.00 | 0.00 | 0.00 | 80 | 1014.7 |
| 20260509013032 | 54 | 171 | 1.0 | 3.0 | 0.00 | 0.00 | 0.00 | 80 | 1014.7 |
| 20260509012019 | 54 | 0.0 | 0.0 | 0.00 | 0.00 | 0.00 | 79 | 1014.7 | |
| 20260509011023 | 55 | 184 | 2.0 | 2.0 | 0.00 | 0.00 | 0.00 | 79 | 1014.7 |
| 20260509010048 | 55 | 179 | 2.0 | 3.0 | 0.00 | 0.00 | 0.00 | 77 | 1014.9 |
| 20260509005015 | 55 | 169 | 2.0 | 2.0 | 0.00 | 0.00 | 0.00 | 75 | 1015.0 |
| 20260509004020 | 56 | 180 | 1.0 | 2.0 | 0.00 | 0.00 | 0.00 | 75 | 1015.0 |
| 20260509003044 | 56 | 0.0 | 0.0 | 0.00 | 0.00 | 0.00 | 71 | 1014.9 | |
| 20260509002030 | 57 | 0.0 | 0.0 | 0.00 | 0.00 | 0.00 | 68 | 1014.7 | |
| 20260509001016 | 58 | 180 | 0.0 | 2.0 | 0.00 | 0.00 | 0.00 | 66 | 1014.7 |
| 20260509000020 | 60 | 305 | 1.0 | 2.0 | 0.00 | 0.00 | 0.00 | 61 | 1014.7 |
| 20260508235025 | 61 | 243 | 2.0 | 3.0 | 0.00 | 0.00 | 0.00 | 60 | 1014.7 |
| 20260508234024 | 61 | 291 | 3.0 | 5.0 | 0.00 | 0.00 | 0.00 | 59 | 1014.6 |
| 20260508233017 | 63 | 292 | 3.0 | 4.0 | 0.00 | 0.00 | 0.00 | 58 | 1014.4 |
| 20260508232022 | 63 | 300 | 3.0 | 6.0 | 0.00 | 0.00 | 0.00 | 56 | 1014.2 |
| 20260508231021 | 62 | 270 | 3.0 | 6.0 | 0.00 | 0.00 | 0.00 | 58 | 1014.4 |
| 20260508230019 | 62 | 274 | 4.0 | 6.0 | 0.00 | 0.00 | 0.00 | 56 | 1014.7 |
| 20260508225018 | 62 | 264 | 8.0 | 14.0 | 0.00 | 0.00 | 0.00 | 56 | 1014.7 |
| 20260508224058 | 62 | 266 | 5.0 | 9.0 | 0.00 | 0.00 | 0.00 | 56 | 1014.7 |
| 20260508223035 | 62 | 260 | 6.0 | 9.0 | 0.00 | 0.00 | 0.00 | 56 | 1014.6 |
| 20260508222032 | 63 | 269 | 8.0 | 13.0 | 0.00 | 0.00 | 0.00 | 55 | 1014.5 |
| 20260508221020 | 63 | 259 | 10.0 | 15.0 | 0.00 | 0.00 | 0.00 | 54 | 1014.4 |
| 20260508220044 | 63 | 271 | 5.0 | 8.0 | 0.00 | 0.00 | 0.00 | 54 | 1014.4 |
| 20260508215029 | 63 | 269 | 4.0 | 7.0 | 0.00 | 0.00 | 0.00 | 53 | 1014.3 |
| 20260508214033 | 63 | 273 | 4.0 | 7.0 | 0.00 | 0.00 | 0.00 | 54 | 1014.3 |
| 20260508213021 | 63 | 272 | 3.0 | 6.0 | 0.00 | 0.00 | 0.00 | 54 | 1014.4 |
| 20260508212025 | 63 | 249 | 5.0 | 8.0 | 0.00 | 0.00 | 0.00 | 53 | 1014.4 |
| 20260508211029 | 63 | 256 | 5.0 | 8.0 | 0.00 | 0.00 | 0.00 | 52 | 1014.4 |
| 20260508210016 | 63 | 291 | 4.0 | 6.0 | 0.00 | 0.00 | 0.00 | 52 | 1014.2 |
| 20260508205020 | 63 | 246 | 4.0 | 6.0 | 0.00 | 0.00 | 0.00 | 51 | 1014.3 |
| 20260508204025 | 64 | 253 | 4.0 | 8.0 | 0.00 | 0.00 | 0.00 | 51 | 1014.4 |
| 20260508203030 | 64 | 268 | 5.0 | 8.0 | 0.00 | 0.00 | 0.00 | 49 | 1014.4 |
| 20260508202017 | 64 | 251 | 7.0 | 10.0 | 0.00 | 0.00 | 0.00 | 50 | 1014.4 |